Theta_e
326 326 325 325 324 324 324 323 321 320 320 319 320 320 320 320 321 320 318 318 318 318 319 319 319 320 319 313 312 319 326 324 318 316 313 311 309 308 305 306 306 305 305 307 308 308 308
324 324 324 324 324 323 324 323 321 319 319 319 319 318 319 319 320 319 318 317 317 317 318 318 319 319 317 307 319 319 317 317 317 314 312 312 310 310 307 306 305 306 306 307 308 309 307
325 324 324 323 322 322 322 321 320 319 319 319 318 318 318 318 318 318 318 317 316 316 317 318 319 317 314 313 321 322 317 317 317 314 311 313 313 310 308 305 308 306 303 305 306 306 306
324 324 324 322 321 321 320 320 320 320 319 319 319 318 317 317 316 316 316 316 316 316 317 318 319 315 311 321 322 320 317 316 317 317 314 314 314 311 308 309 306 303 302 299 304 303 304
323 323 323 322 321 320 320 320 319 320 320 319 319 318 317 316 315 315 315 315 315 316 318 318 315 316 310 322 317 318 317 314 315 315 315 314 313 307 307 303 300 300 297 297 301 302 302
323 323 322 322 321 321 320 319 319 319 319 319 318 318 317 316 315 314 312 314 315 318 318 318 315 310 312 311 316 316 317 317 314 312 311 309 306 304 302 301 294 295 297 298 297 301 300
323 323 323 322 321 321 321 320 319 318 318 318 318 318 317 316 316 314 313 314 308 307 312 309 309 309 310 315 317 314 316 313 311 309 304 305 302 299 302 302 300 300 298 297 300 300 299
322 322 322 322 321 321 321 321 319 318 318 318 317 317 317 316 316 314 311 311 312 313 305 311 310 310 313 315 308 312 314 309 307 303 303 302 298 303 302 301 300 299 298 297 299 299 298
321 321 321 321 321 321 321 321 318 317 317 317 317 317 316 315 315 312 309 308 314 315 306 305 311 310 311 313 308 309 310 307 303 300 300 299 301 302 300 300 299 298 296 295 296 298 298
320 319 320 320 320 320 320 320 318 317 316 316 316 315 314 314 311 309 307 314 316 316 292 295 304 311 311 312 304 313 308 305 302 299 300 300 303 301 299 298 300 295 298 297 296 295 293
319 318 318 319 319 319 318 318 318 317 316 316 315 315 314 315 309 307 314 316 317 309 282 295 305 311 309 305 303 303 306 305 298 299 301 298 299 299 299 299 301 299 300 298 296 295 293
318 318 318 318 318 317 317 317 317 316 316 315 314 314 313 314 313 315 316 317 310 291 281 293 301 299 300 301 301 302 303 305 303 299 298 298 301 301 302 301 300 300 298 296 294 293 289
318 317 317 317 317 317 317 316 316 315 315 314 314 314 316 316 310 316 315 310 291 284 294 291 296 299 298 297 298 299 298 297 296 292 293 297 297 300 301 299 299 299 296 291 290 288 289
315 316 317 317 316 316 316 316 315 315 314 314 312 313 314 316 314 315 313 300 284 289 289 296 299 298 296 298 297 296 296 294 297 296 293 292 291 299 301 301 299 296 297 292 285 287 290
311 313 316 316 316 316 316 315 315 314 314 313 311 315 314 316 314 315 307 292 289 290 294 294 298 295 294 297 298 296 295 294 297 298 295 292 293 301 300 301 302 296 293 298 292 289 286
309 311 311 314 315 315 315 315 314 314 313 312 314 312 313 317 315 310 302 293 294 296 296 298 294 296 293 295 295 294 294 298 297 298 300 297 292 299 301 302 300 299 299 292 291 286 285
303 308 309 310 312 314 314 314 314 314 313 314 314 307 315 318 318 305 294 295 297 298 298 296 295 294 295 295 296 293 295 298 298 297 299 299 296 295 298 298 298 295 294 294 294 291 288
304 303 307 309 310 310 312 313 313 313 313 314 312 302 316 317 302 302 295 298 299 298 299 298 299 297 296 297 295 294 295 298 300 300 295 299 295 291 295 298 299 298 298 298 292 292 289
304 305 304 305 308 308 309 310 312 312 313 314 307 307 315 315 297 298 301 300 300 298 299 296 296 299 299 297 294 296 297 302 301 300 298 299 295 290 293 298 298 296 297 297 296 294 292
304 305 304 305 305 307 308 309 309 311 312 313 304 292 304 309 308 302 299 298 296 301 299 300 297 300 298 297 298 296 296 301 301 302 302 302 297 296 291 295 299 294 295 296 296 292 293
304 305 305 305 305 306 306 308 308 309 311 313 305 296 300 294 301 303 303 301 298 295 300 300 296 297 297 293 295 295 298 298 299 302 302 302 296 296 298 299 297 297 298 296 293 295 293
303 304 304 305 305 305 306 305 307 308 308 305 295 297 299 300 302 302 300 300 299 300 298 296 295 297 298 295 296 295 297 298 298 299 300 301 296 298 295 298 298 296 299 298 296 296 296
304 304 304 304 305 306 306 306 306 306 307 299 299 300 301 299 299 297 299 300 300 302 303 303 300 299 296 299 302 303 303 302 302 299 297 297 297 291 289 296 296 291 296 298 299 301 300
304 304 304 304 305 305 305 306 306 305 306 301 299 299 296 293 298 297 300 301 302 302 300 303 303 299 304 307 305 303 301 301 301 301 303 297 295 294 290 292 284 297 303 302 299 300 302
304 304 304 304 304 304 304 305 305 306 306 299 298 297 294 289 298 299 300 300 303 304 303 303 304 307 307 303 293 289 288 291 296 299 300 302 297 289 288 288 292 296 296 297 296 296 302
304 304 304 303 303 303 304 304 305 305 306 301 298 298 293 289 290 296 296 300 298 298 298 301 302 305 305 299 289 288 285 290 290 294 301 300 300 294 285 284 284 296 297 303 302 291 303
303 303 303 303 303 303 303 304 304 305 305 301 297 297 292 285 290 292 292 293 299 298 295 295 297 299 305 294 290 289 289 294 288 288 289 292 293 290 290 288 290 298 296 302 289 294 301
301 302 302 302 303 303 303 303 304 304 304 302 296 297 292 285 289 293 293 291 292 295 292 292 294 291 293 293 290 286 287 291 290 294 292 291 289 289 290 288 286 299 296 293 299 297 298
299 301 302 302 302 302 303 303 303 303 304 303 294 298 297 290 288 294 295 296 294 295 290 290 292 292 293 291 290 289 285 288 290 287 294 289 295 292 293 293 299 300 301 300 297 296 294
Wind_Speed
25 23 21 19 19 18 16 14 13 12 10 9 7 7 7 7 8 10 11 11 13 15 14 14 15 14 5 5 3 2 6 4 3 2 2 2 2 2 1 1 2 4 2 2 7 9 7
25 24 21 20 19 19 18 16 14 12 10 9 8 7 6 7 6 8 12 12 11 15 14 14 13 12 2 4 2 3 1 1 1 2 2 2 2 3 3 2 2 1 5 10 9 12 5
26 25 23 21 19 19 18 15 14 13 11 10 8 7 6 6 7 8 11 13 12 14 15 12 10 2 3 7 2 3 0 2 1 2 1 1 3 1 3 1 1 3 6 7 6 2 3
28 26 25 22 21 19 18 16 15 13 12 10 9 8 6 6 7 9 10 15 14 14 13 6 3 2 6 2 0 3 2 2 1 1 1 0 2 3 1 0 2 2 0 3 1 3 0
29 28 27 25 22 21 19 17 15 14 13 12 10 9 6 7 7 8 12 15 14 9 3 1 1 1 7 3 1 1 1 3 1 2 3 3 3 2 2 2 1 2 4 2 5 2 2
31 30 29 27 24 23 21 19 17 16 13 12 11 9 7 5 8 7 13 12 1 1 2 2 0 1 4 4 3 1 1 1 0 2 2 2 3 1 2 3 4 3 2 2 4 1 1
32 31 29 28 26 24 22 21 18 16 14 13 11 10 8 5 5 7 8 3 3 2 2 5 3 4 2 3 1 1 1 4 3 4 4 2 3 9 9 6 2 3 2 5 8 6 3
33 31 31 29 27 26 24 21 19 18 16 13 12 9 8 5 3 3 2 2 2 2 6 7 8 6 3 1 3 2 4 5 4 5 3 1 9 10 5 4 6 5 4 7 9 3 4
34 33 32 31 28 27 25 22 21 19 18 15 13 11 8 6 2 2 2 3 2 1 1 7 4 4 4 8 6 5 7 4 3 5 7 6 1 3 5 7 7 4 5 4 6 4 2
35 34 32 31 29 27 25 23 21 20 18 16 14 12 11 8 1 2 2 1 1 3 4 7 3 5 4 4 2 3 4 4 2 5 6 5 3 4 3 5 9 4 8 5 4 2 4
34 32 32 31 30 27 25 24 22 21 20 17 15 14 13 7 5 3 3 1 3 3 4 3 3 4 4 4 7 2 3 3 6 5 5 1 4 5 5 6 10 5 4 3 1 3 2
35 33 31 31 30 27 25 24 23 21 20 19 17 16 14 4 2 3 2 4 4 6 9 1 4 6 4 1 1 4 3 3 2 4 3 5 2 4 5 4 5 3 3 4 3 1 5
33 31 30 29 29 28 26 25 24 22 20 20 19 20 12 6 5 6 2 3 5 6 3 5 5 5 3 4 4 5 6 6 6 4 5 1 4 2 3 4 1 2 2 3 3 2 6
6 26 29 29 27 28 27 25 24 23 22 20 20 20 6 4 4 7 3 5 7 5 6 2 3 3 5 6 3 5 6 5 6 2 3 5 2 7 5 7 5 6 6 4 5 5 7
5 8 22 22 24 26 25 26 24 24 23 21 21 7 5 4 5 3 5 8 9 9 6 7 4 4 4 4 5 4 7 5 9 13 8 7 5 2 4 3 5 5 6 2 3 3 4
4 9 9 18 23 24 24 25 25 26 25 28 8 6 8 10 7 4 6 15 8 8 5 2 10 7 8 6 7 7 9 5 5 13 2 5 1 4 3 4 2 3 6 2 1 6 12
4 4 8 10 14 20 21 23 26 26 30 29 7 6 11 14 4 4 17 13 10 7 5 7 8 4 4 8 8 6 4 2 6 4 5 5 3 2 2 8 11 3 3 1 3 4 9
4 0 3 8 11 11 18 20 25 28 31 22 7 13 16 17 10 8 20 16 7 8 4 3 1 4 7 8 6 6 11 6 8 8 10 4 4 6 13 3 2 1 8 11 10 11 5
8 8 4 2 1 6 10 12 18 23 34 9 7 7 17 19 17 18 11 19 14 12 17 8 8 5 4 7 3 7 7 5 9 10 12 10 4 3 3 2 1 6 7 8 8 5 19
13 11 9 9 9 7 8 9 11 19 28 6 5 5 5 12 18 24 21 16 17 21 12 14 5 5 4 5 6 5 6 5 4 5 3 9 7 8 13 9 3 5 11 12 16 15 15
14 13 12 13 10 11 7 7 9 9 21 6 6 4 4 9 18 22 23 14 18 13 20 21 11 21 15 14 14 12 5 1 1 2 1 5 15 9 11 10 6 16 21 15 20 20 21
16 14 14 13 12 12 13 12 9 9 8 7 5 6 1 3 3 12 13 23 26 22 14 18 20 20 19 27 24 15 18 8 14 1 7 6 15 10 22 14 16 32 25 20 19 20 22
19 18 16 16 17 16 16 16 14 10 8 1 1 2 2 8 13 14 15 23 26 21 18 25 26 22 28 31 25 24 12 9 11 19 12 7 5 3 30 15 15 29 18 28 28 29 27
21 21 20 20 20 19 18 18 17 15 13 1 0 3 4 11 14 22 26 27 24 27 30 22 22 28 27 6 19 4 3 12 19 21 16 14 14 11 18 5 14 21 9 15 22 27 29
21 22 22 21 20 19 20 19 18 20 18 1 1 2 1 2 12 15 19 24 22 18 21 22 20 22 14 13 3 2 2 3 17 18 18 17 12 6 9 14 17 32 7 8 11 28 23
16 19 19 19 18 18 19 20 19 20 20 6 1 3 2 2 3 4 5 12 13 15 12 17 2 1 10 8 4 13 9 6 9 5 22 20 18 13 5 6 14 16 1 11 6 26 16
8 12 15 17 18 19 19 20 20 21 22 8 3 3 4 2 1 2 2 2 1 3 3 4 6 5 13 9 11 11 13 11 11 10 7 14 16 24 20 17 11 7 6 10 12 8 6
9 11 15 16 16 18 20 22 23 22 23 11 3 8 6 2 2 0 3 3 3 3 2 4 4 2 5 12 7 4 5 9 5 4 11 13 9 13 14 14 22 12 8 14 4 1 4
8 7 10 13 17 19 21 24 25 26 26 21 3 5 5 3 0 2 4 6 5 4 3 4 2 2 4 2 2 3 4 3 8 10 5 9 12 9 13 8 2 11 8 6 2 3 3
Wind_Direction
212 214 215 207 197 199 198 199 201 207 206 223 225 249 268 287 306 312 310 314 318 319 323 324 322 323 4 12 240 51 126 139 124 101 85 114 91 128 142 181 251 216 263 227 273 286 271
207 210 207 210 200 201 200 197 198 208 201 215 216 246 264 278 291 304 305 307 310 309 319 319 315 313 76 347 141 60 59 322 139 118 133 125 151 161 131 168 228 217 272 276 269 265 238
207 206 204 205 204 200 202 194 196 198 201 211 215 220 251 277 295 301 301 299 301 302 309 315 301 296 112 243 116 356 26 149 171 155 111 178 143 143 153 214 272 275 290 304 243 272 256
206 205 204 203 200 198 197 194 193 195 199 203 210 212 232 260 284 295 299 299 300 297 303 306 251 268 243 216 307 291 155 89 188 208 164 191 153 102 186 239 48 300 355 318 47 342 6
204 205 206 204 199 200 196 192 193 195 198 194 211 211 215 259 279 296 295 291 299 297 271 147 253 167 272 309 182 114 162 135 155 99 70 84 69 61 98 124 299 29 274 266 300 88 315
201 203 203 204 199 198 198 191 191 190 196 198 196 208 201 241 286 307 300 292 290 111 88 210 177 348 273 191 124 93 135 89 94 19 40 63 64 164 95 180 238 178 223 254 267 232 323
199 200 202 201 198 198 198 190 191 188 192 197 199 199 197 211 280 330 344 2 360 7 19 219 198 264 283 282 337 168 151 100 93 84 186 29 227 219 227 212 169 141 216 268 261 261 264
198 198 202 200 196 198 196 192 190 187 189 191 191 190 196 187 260 328 40 92 149 149 304 254 262 266 275 72 327 251 139 143 143 193 135 75 254 239 233 198 225 205 253 272 281 267 258
197 196 197 199 196 194 193 190 187 186 184 187 185 180 178 176 170 36 138 219 125 176 297 289 204 240 216 160 211 225 141 137 134 164 187 186 213 82 184 205 203 204 206 227 260 320 244
195 194 194 195 197 192 190 187 185 184 183 182 177 170 162 157 164 173 231 196 269 194 50 272 245 250 138 176 161 206 164 130 107 190 165 236 257 216 167 223 200 246 213 218 245 287 287
188 191 191 193 193 190 185 183 181 183 181 178 171 162 171 154 141 174 145 50 156 47 323 242 185 146 156 180 139 219 179 83 162 178 162 193 184 183 206 227 178 225 158 185 152 227 320
189 185 189 190 189 187 182 180 178 181 179 173 168 158 138 106 127 242 119 108 62 49 245 278 147 175 144 210 128 127 128 63 121 144 227 250 271 198 207 190 192 118 115 64 70 170 253
182 182 184 187 188 186 183 180 178 176 175 170 162 155 161 156 192 158 118 67 65 193 341 192 195 164 199 171 164 150 162 170 170 159 226 218 211 243 177 127 104 114 82 301 253 206 258
209 182 179 183 186 185 184 180 177 172 170 167 158 156 166 184 139 137 90 68 216 194 207 353 145 95 181 158 227 155 140 195 222 159 147 179 249 185 184 205 189 190 180 196 272 266 282
109 137 174 181 186 183 184 179 175 171 166 158 140 165 156 202 147 103 121 207 209 183 182 173 100 149 214 212 158 145 193 212 204 183 195 173 259 206 182 147 177 163 198 175 240 167 269
164 130 146 174 186 182 181 181 177 171 158 148 160 164 188 157 147 83 194 227 207 195 154 177 181 172 177 191 163 182 178 206 218 193 212 204 241 218 133 129 53 194 150 141 45 271 266
1 146 123 128 155 185 183 182 182 173 160 160 163 188 153 153 138 166 211 218 199 223 173 172 201 157 190 165 183 193 202 246 208 168 185 150 167 223 158 202 193 158 192 224 269 202 267
185 287 143 127 171 153 165 188 185 176 165 167 172 202 156 148 191 198 217 207 150 188 183 211 119 198 179 176 193 203 201 228 158 148 168 193 154 207 226 122 93 62 239 225 237 244 230
234 194 186 35 208 131 153 150 178 181 169 174 186 175 174 159 201 211 206 213 213 175 207 177 191 207 201 187 216 196 196 229 166 163 171 178 193 215 246 215 161 211 194 210 240 259 252
236 216 188 188 194 193 173 172 164 178 178 155 159 158 166 192 205 202 203 202 205 202 205 204 178 158 135 218 250 223 204 223 196 199 262 164 178 201 243 243 159 211 216 212 219 240 259
238 216 202 198 197 191 201 214 172 166 197 181 158 236 217 188 199 206 205 193 199 182 213 190 217 207 196 227 228 229 221 238 12 211 187 197 252 233 243 244 214 248 245 221 224 236 243
237 225 208 204 198 200 196 212 214 172 180 211 152 162 181 174 203 198 191 210 213 199 160 211 214 200 218 228 221 228 222 204 226 336 205 185 249 254 263 256 252 260 241 229 225 235 249
230 222 211 201 204 202 202 200 199 203 181 142 100 42 181 181 195 203 223 220 229 218 221 214 207 214 218 223 227 234 230 195 219 220 204 204 228 153 261 238 247 266 239 234 243 238 241
231 220 211 207 204 200 204 206 191 193 208 13 178 106 167 216 209 209 219 224 217 216 221 204 208 211 213 207 236 54 146 223 225 231 230 233 226 225 263 191 227 247 231 201 219 233 233
225 216 214 208 205 204 198 205 197 187 192 98 218 124 185 227 216 229 225 223 228 220 227 222 215 218 208 204 121 200 211 229 228 229 219 214 211 223 233 234 269 276 200 183 197 256 224
235 213 205 210 207 211 206 204 202 190 182 159 68 81 76 100 223 299 232 230 223 222 234 240 70 133 160 192 187 201 198 176 204 224 210 210 215 218 167 220 241 284 308 203 146 263 196
234 206 207 209 210 209 212 209 204 197 186 171 141 139 98 158 256 348 194 201 194 169 224 145 167 169 188 188 212 217 214 175 211 194 156 197 206 220 233 239 263 241 130 142 190 272 179
275 234 219 218 218 217 211 210 205 199 198 180 140 157 130 147 258 356 41 30 357 336 174 219 97 272 179 216 197 184 213 197 185 209 182 181 191 217 223 231 241 150 163 206 196 183 190
327 273 244 228 224 222 219 214 206 201 199 185 138 159 113 137 234 316 248 194 166 114 9 329 42 187 334 256 162 149 179 189 176 226 161 201 206 197 203 213 201 192 214 205 153 157 196